When you browse on this site, cookies collect data to enhance your experience and personalize the content and advertising you see.
Visit our Privacy Policy to learn more. By continuing to use the site, you agree to this use of cookies and data.
  • In Spain
  • List of Countries
  • For 7 days
  • Water Temperature
  • Satellite Maps
  • Weather Map
  • Weather Widgets
  • user-avatar
    Login

    Hourly Weather Innsbruck

    Today, 21 May, Tuesday

    Time Temperature Precipitation Wind Pressure Humidity
    00:00 +2°C° 1.9 mm 1 mps 588 mmHg 96%
    01:00 +1°C° 0 mm 2 mps 588 mmHg 97%
    02:00 +1°C° 1 mm 2 mps 588 mmHg 97%
    03:00 +1°C° 1 mm 2 mps 588 mmHg 96%
    04:00 +1°C° 1 mm 2 mps 588 mmHg 96%
    05:00 +1°C° 0.5 mm 2 mps 589 mmHg 95%
    06:00 +2°C° 0.5 mm 2 mps 589 mmHg 95%
    07:00 +2°C° 0 mm 2 mps 589 mmHg 95%
    08:00 +2°C° 0.6 mm 2 mps 590 mmHg 95%
    09:00 +3°C° 0.6 mm 2 mps 590 mmHg 94%
    10:00 +3°C° 0.6 mm 2 mps 591 mmHg 93%
    11:00 +4°C° 0.5 mm 2 mps 591 mmHg 91%
    12:00 +4°C° 0.5 mm 2 mps 591 mmHg 89%
    13:00 +5°C° 0 mm 1 mps 592 mmHg 88%
    14:00 +5°C° 0.7 mm 1 mps 592 mmHg 90%
    15:00 +5°C° 0.7 mm 1 mps 592 mmHg 92%
    16:00 +3°C° 0.7 mm 2 mps 592 mmHg 93%
    17:00 +3°C° 0.5 mm 2 mps 592 mmHg 95%
    18:00 +2°C° 0.5 mm 2 mps 592 mmHg 96%
    19:00 +3°C° 0.5 mm 1 mps 592 mmHg 97%
    20:00 +3°C° 0.4 mm 1 mps 592 mmHg 97%
    21:00 +2°C° 0.4 mm 1 mps 593 mmHg 96%
    22:00 +2°C° 0.4 mm 1 mps 593 mmHg 96%
    23:00 +1°C° 0.1 mm 1 mps 593 mmHg 96%

    Tomorrow, 22 May, Wednesday

    Time Temperature Precipitation Wind Pressure Humidity
    00:00 +1°C° 0.1 mm 1 mps 593 mmHg 96%
    01:00 0°C° 0.1 mm 1 mps 593 mmHg 96%
    02:00 0°C° 0 mm 1 mps 593 mmHg 96%
    03:00 0°C° 0 mm 1 mps 593 mmHg 95%
    04:00 0°C° 0 mm 1 mps 593 mmHg 95%
    05:00 +1°C° 0 mm 1 mps 593 mmHg 94%
    06:00 +2°C° 0 mm 1 mps 594 mmHg 92%
    07:00 +3°C° 0 mm 1 mps 594 mmHg 91%
    08:00 +4°C° 0 mm 1 mps 595 mmHg 87%
    09:00 +4°C° 0 mm 2 mps 596 mmHg 84%
    10:00 +5°C° 0 mm 2 mps 596 mmHg 80%
    11:00 +6°C° 0.1 mm 2 mps 596 mmHg 78%
    12:00 +6°C° 0.1 mm 2 mps 597 mmHg 77%
    13:00 +7°C° 0.1 mm 2 mps 597 mmHg 75%
    14:00 +7°C° 0.3 mm 2 mps 597 mmHg 77%
    15:00 +6°C° 0.3 mm 2 mps 596 mmHg 79%
    16:00 +6°C° 0.3 mm 2 mps 596 mmHg 82%
    17:00 +5°C° 0.3 mm 2 mps 596 mmHg 85%
    18:00 +4°C° 0.3 mm 2 mps 596 mmHg 89%
    19:00 +3°C° 0.3 mm 2 mps 596 mmHg 92%
    20:00 +4°C° 0.2 mm 1 mps 596 mmHg 94%
    21:00 +3°C° 0.2 mm 1 mps 596 mmHg 96%
    22:00 +3°C° 0.2 mm 1 mps 596 mmHg 97%
    23:00 +2°C° 0 mm 1 mps 596 mmHg 97%

    Day after tomorrow, 23 May, Thursday

    Time Temperature Precipitation Wind Pressure Humidity
    00:00 +2°C° 0 mm 1 mps 596 mmHg 97%
    01:00 +2°C° 0 mm 1 mps 596 mmHg 97%
    02:00 +1°C° 0 mm 1 mps 596 mmHg 96%
    03:00 +1°C° 0 mm 1 mps 596 mmHg 96%
    04:00 +1°C° 0 mm 1 mps 596 mmHg 96%
    05:00 +2°C° 0 mm 1 mps 596 mmHg 92%
    06:00 +3°C° 0 mm 1 mps 597 mmHg 89%
    07:00 +4°C° 0 mm 1 mps 597 mmHg 85%
    08:00 +5°C° 0 mm 1 mps 598 mmHg 79%
    09:00 +7°C° 0 mm 1 mps 598 mmHg 73%
    10:00 +8°C° 0 mm 1 mps 599 mmHg 66%
    11:00 +8°C° 0 mm 2 mps 599 mmHg 62%
    12:00 +9°C° 0 mm 2 mps 599 mmHg 58%
    13:00 +10°C° 0 mm 2 mps 599 mmHg 55%
    14:00 +10°C° 0 mm 2 mps 599 mmHg 55%
    15:00 +10°C° 0 mm 2 mps 598 mmHg 55%
    16:00 +10°C° 0 mm 2 mps 598 mmHg 56%
    17:00 +8°C° 0 mm 2 mps 597 mmHg 62%
    18:00 +7°C° 0 mm 2 mps 597 mmHg 69%
    19:00 +5°C° 0 mm 2 mps 596 mmHg 76%
    20:00 +5°C° 0 mm 1 mps 596 mmHg 81%
    21:00 +3°C° 0 mm 1 mps 595 mmHg 86%
    22:00 +1°C° 0 mm 1 mps 595 mmHg 92%
    23:00 +1°C° 0 mm 1 mps 595 mmHg 91%

    24 May, Friday

    Time Temperature Precipitation Wind Pressure Humidity
    00:00 +1°C° 0 mm 1 mps 595 mmHg 90%
    01:00 +1°C° 0 mm 1 mps 595 mmHg 89%
    02:00 +1°C° 0 mm 1 mps 595 mmHg 87%
    03:00 +1°C° 0 mm 1 mps 594 mmHg 86%
    04:00 +1°C° 0 mm 1 mps 594 mmHg 84%
    05:00 +3°C° 0 mm 1 mps 595 mmHg 78%
    06:00 +5°C° 0 mm 1 mps 596 mmHg 72%
    07:00 +6°C° 0 mm 0 mps 597 mmHg 66%
    08:00 +8°C° 0 mm 1 mps 597 mmHg 61%
    09:00 +10°C° 0 mm 1 mps 598 mmHg 57%
    10:00 +11°C° 0 mm 1 mps 598 mmHg 52%
    11:00 +12°C° 0 mm 1 mps 598 mmHg 52%
    12:00 +12°C° 0 mm 2 mps 598 mmHg 52%
    13:00 +13°C° 0 mm 2 mps 598 mmHg 52%
    14:00 +12°C° 0.1 mm 2 mps 598 mmHg 55%
    15:00 +12°C° 0.1 mm 2 mps 597 mmHg 58%
    16:00 +10°C° 0.1 mm 2 mps 597 mmHg 61%
    17:00 +9°C° 0.3 mm 2 mps 596 mmHg 68%
    18:00 +8°C° 0.3 mm 2 mps 596 mmHg 74%
    19:00 +8°C° 0.3 mm 1 mps 595 mmHg 81%
    20:00 +6°C° 0.4 mm 1 mps 595 mmHg 86%
    21:00 +5°C° 0.4 mm 1 mps 595 mmHg 90%
    22:00 +4°C° 0.4 mm 1 mps 595 mmHg 95%
    23:00 +4°C° 0.2 mm 1 mps 595 mmHg 95%

    25 May, Saturday

    Time Temperature Precipitation Wind Pressure Humidity
    00:00 +3°C° 0.2 mm 0 mps 595 mmHg 95%
    01:00 +3°C° 0.2 mm 0 mps 594 mmHg 95%
    02:00 +2°C° 0.2 mm 0 mps 594 mmHg 95%
    03:00 +2°C° 0.2 mm 0 mps 594 mmHg 95%
    04:00 +2°C° 0.2 mm 0 mps 594 mmHg 95%
    05:00 +3°C° 0.2 mm 0 mps 595 mmHg 90%
    06:00 +5°C° 0.2 mm 0 mps 595 mmHg 85%
    07:00 +6°C° 0.2 mm 0 mps 596 mmHg 80%
    08:00 +7°C° 0.4 mm 0 mps 597 mmHg 76%
    09:00 +9°C° 0.4 mm 1 mps 597 mmHg 71%
    10:00 +10°C° 0.4 mm 1 mps 598 mmHg 67%
    11:00 +10°C° 0.7 mm 1 mps 597 mmHg 68%
    12:00 +10°C° 0.7 mm 1 mps 597 mmHg 69%
    13:00 +10°C° 0.7 mm 1 mps 597 mmHg 71%
    14:00 +10°C° 0.8 mm 1 mps 597 mmHg 73%
    15:00 +10°C° 0.8 mm 1 mps 597 mmHg 75%
    16:00 +10°C° 0.8 mm 1 mps 597 mmHg 77%
    17:00 +9°C° 0.6 mm 1 mps 596 mmHg 82%
    18:00 +8°C° 0.6 mm 1 mps 596 mmHg 86%
    19:00 +7°C° 0.6 mm 1 mps 596 mmHg 90%
    20:00 +6°C° 0.4 mm 1 mps 596 mmHg 92%
    21:00 +6°C° 0.4 mm 1 mps 596 mmHg 95%
    22:00 +5°C° 0.4 mm 1 mps 596 mmHg 97%
    23:00 +5°C° 0.2 mm 1 mps 596 mmHg 96%

    26 May, Sunday

    Time Temperature Precipitation Wind Pressure Humidity
    00:00 +4°C° 0.2 mm 1 mps 596 mmHg 96%
    01:00 +4°C° 0.2 mm 1 mps 595 mmHg 96%
    02:00 +4°C° 0.2 mm 1 mps 595 mmHg 96%
    03:00 +4°C° 0.2 mm 1 mps 595 mmHg 96%
    04:00 +4°C° 0.2 mm 1 mps 595 mmHg 96%
    05:00 +4°C° 0.1 mm 1 mps 595 mmHg 94%
    06:00 +5°C° 0.1 mm 1 mps 596 mmHg 91%
    07:00 +6°C° 0.1 mm 1 mps 596 mmHg 88%
    08:00 +7°C° 0.1 mm 1 mps 597 mmHg 82%
    09:00 +9°C° 0.1 mm 1 mps 598 mmHg 75%
    10:00 +9°C° 0.1 mm 2 mps 598 mmHg 68%
    11:00 +10°C° 0.1 mm 2 mps 598 mmHg 65%
    12:00 +10°C° 0.1 mm 2 mps 598 mmHg 62%
    13:00 +12°C° 0.1 mm 2 mps 598 mmHg 59%
    14:00 +12°C° 0.2 mm 2 mps 598 mmHg 61%
    15:00 +12°C° 0.2 mm 2 mps 598 mmHg 62%
    16:00 +10°C° 0.2 mm 2 mps 598 mmHg 64%
    17:00 +9°C° 0.2 mm 2 mps 597 mmHg 71%
    18:00 +8°C° 0.2 mm 2 mps 597 mmHg 78%
    19:00 +7°C° 0.2 mm 2 mps 597 mmHg 85%
    20:00 +7°C° 0.2 mm 1 mps 596 mmHg 89%
    21:00 +6°C° 0.2 mm 1 mps 596 mmHg 93%
    22:00 +5°C° 0.2 mm 1 mps 596 mmHg 97%
    23:00 +4°C° 0.2 mm 1 mps 596 mmHg 97%
    Show more